Imperial, CA

1:06 AM PDT on May 30, 2017 (GMT -0700)
Imperial County

Weather History for KIPL - March, 2012

Change the Weather History Date:

Thursday, March 15, 2012

  Actual Average Record
Temperature  
Mean Temperature 68 °F -  
Max Temperature 84 °F 79 °F 96 °F (2013)
Min Temperature 53 °F 49 °F 35 °F (1962)
Cooling Degree Days 2    
Growing Degree Days 18 (Base 50)    
Moisture  
Dew Point 37 °F    
Average Humidity 34    
Maximum Humidity 57    
Minimum Humidity 15    
Precipitation  
Precipitation 0.00 in - - ()
Sea Level Pressure  
Sea Level Pressure 29.97 in    
Wind  
Wind Speed 6 mph (WNW)    
Max Wind Speed 10 mph    
Max Gust Speed -    
Visibility 10 miles    
Events      
Averages and records for this station are not official NWS values.
T = Trace of Precipitation, MM = Missing Value Source: NWS Daily Summary

Daily Weather History Graph

Daily Weather History Graph

Search for Another Location

Airport or City:

Trip Planner

Search our weather history database for the weather conditions in past years. The results will help you decide how hot, cold, wet, or windy it might be!

Date:

Astronomy

Mar. 15, 2012 Rise Set
Actual Time 6:51 AM PDT 6:50 PM PDT
Civil Twilight 6:27 AM PDT 7:15 PM PDT
Nautical Twilight 5:58 AM PDT 7:43 PM PDT
Astronomical Twilight 5:29 AM PDT 8:12 PM PDT
Moon 2:05 AM PDT (3/15) 12:30 PM PDT (3/15)
Length of Visible Light 12h 48m
Length of Day
11h 58m
Last Quarter, 42% of the Moon is Illuminated
Mar 15
Last Quarter
Mar 22
New
Mar 30
First Quarter
Apr 6
Full
Apr 13
Last Quarter

Hourly Weather History & Observations

Time (PDT) Temp. Dew Point Humidity Pressure Visibility Wind Dir Wind Speed Gust Speed Precip Events Conditions
12:53 AM 61.0 °F 36.0 °F 39% 30.01 in 10.0 mi West 10.4 mph - N/A   Clear
1:53 AM 57.9 °F 36.0 °F 44% 30.01 in 10.0 mi WNW 8.1 mph - N/A   Clear
2:53 AM 57.0 °F 33.1 °F 40% 30.00 in 10.0 mi WNW 3.5 mph - N/A   Clear
3:53 AM 60.1 °F 35.1 °F 39% 29.99 in 10.0 mi NNW 6.9 mph - N/A   Clear
4:53 AM 59.0 °F 39.0 °F 48% 29.99 in 10.0 mi NNW 4.6 mph - N/A   Clear
5:53 AM 53.1 °F 37.9 °F 57% 30.00 in 10.0 mi NW 5.8 mph - N/A   Clear
6:53 AM 57.9 °F 37.9 °F 47% 30.01 in 10.0 mi NW 6.9 mph - N/A   Clear
7:53 AM 55.0 °F 37.0 °F 51% 30.03 in 10.0 mi NW 4.6 mph - N/A   Clear
8:53 AM 63.0 °F 39.9 °F 43% 30.04 in 10.0 mi SSW 3.5 mph - N/A   Clear
9:53 AM 70.0 °F 39.9 °F 33% 30.04 in 10.0 mi North 3.5 mph - N/A   Clear
10:53 AM 73.0 °F 39.0 °F 29% 30.04 in 10.0 mi Calm Calm - N/A   Clear
11:53 AM 77.0 °F 34.0 °F 21% 30.03 in 10.0 mi SSE 6.9 mph - N/A   Clear
12:53 PM 79.0 °F 33.1 °F 19% 30.00 in 10.0 mi West 4.6 mph - N/A   Clear
1:53 PM 81.0 °F 32.0 °F 17% 29.97 in 10.0 mi West 4.6 mph - N/A   Clear
2:53 PM 82.0 °F 33.1 °F 17% 29.94 in 10.0 mi Variable 3.5 mph - N/A   Clear
3:53 PM 82.9 °F 30.0 °F 15% 29.92 in 10.0 mi ESE 5.8 mph - N/A   Clear
4:53 PM 82.9 °F 32.0 °F 16% 29.91 in 10.0 mi Variable 3.5 mph - N/A   Clear
5:53 PM 82.9 °F 33.1 °F 17% 29.89 in 10.0 mi SE 5.8 mph - N/A   Clear
6:53 PM 81.0 °F 34.0 °F 18% 29.89 in 10.0 mi SE 3.5 mph - N/A   Clear
7:53 PM 75.0 °F 37.0 °F 25% 29.91 in 10.0 mi Calm Calm - N/A   Clear
8:53 PM 66.9 °F 42.1 °F 40% 29.92 in 10.0 mi Calm Calm - N/A   Clear
9:53 PM 68.0 °F 39.0 °F 35% 29.93 in 10.0 mi SW 8.1 mph - N/A   Clear
10:53 PM 66.0 °F 45.0 °F 47% 29.94 in 10.0 mi West 6.9 mph - N/A   Clear
11:53 PM 63.0 °F 44.1 °F 50% 29.94 in 10.0 mi West 6.9 mph - N/A   Clear